RH
4 6 4 3 3 2 2 2 2 2 2 2 2 2 3 3 3 4 4 5 6 7 12 12 10 9 10 12 14 15 50 87 100 100 100 86 64 63 84 100 100 100 100 100 88
4 5 4 3 3 2 2 2 2 2 2 2 2 2 2 3 3 4 4 4 5 6 8 12 9 10 9 12 15 14 14 84 100 100 100 100 71 58 64 100 100 100 100 100 100
4 3 3 3 2 2 2 2 2 1 2 2 2 2 2 2 3 4 4 4 5 6 8 10 8 9 10 11 13 15 15 40 100 100 100 100 88 54 53 96 100 100 100 100 100
3 3 3 2 2 2 2 2 2 2 1 1 2 2 2 2 4 4 4 4 4 6 8 9 8 7 12 11 13 14 20 21 71 100 100 100 100 80 54 80 100 100 100 100 100
4 3 2 2 2 2 2 2 1 2 1 1 1 1 1 1 2 3 4 4 4 5 7 8 10 8 12 14 14 15 21 22 36 99 100 100 100 92 77 68 100 100 100 100 100
4 4 3 2 2 2 2 2 2 2 1 1 1 1 1 1 2 3 4 4 5 7 7 9 12 10 12 15 14 15 19 23 44 73 100 100 100 100 85 89 100 100 100 100 100
4 4 3 3 2 2 2 2 2 2 1 1 1 1 1 1 2 3 4 5 6 8 7 11 12 10 12 15 14 14 23 27 28 60 100 100 100 100 93 95 93 100 100 100 100
6 4 3 3 2 2 2 2 2 2 1 1 1 1 1 1 2 2 5 7 9 9 9 12 12 12 11 14 14 14 20 29 28 37 77 100 100 100 99 100 100 100 100 96 100
7 4 4 3 2 2 2 2 2 2 2 1 1 1 1 1 2 3 4 7 11 12 13 11 12 13 12 14 15 14 16 22 33 35 55 100 100 100 100 100 96 100 99 63 77
8 4 4 3 2 2 2 2 2 2 2 2 2 2 1 2 2 3 3 5 11 16 13 7 9 10 11 12 15 16 17 52 65 66 52 100 100 100 100 73 94 81 84 61 54
13 7 4 4 3 2 2 2 3 2 2 2 2 2 2 2 3 3 3 6 13 15 10 7 10 12 15 18 18 18 19 100 100 96 84 100 100 100 100 70 75 62 69 71 66
16 8 5 4 4 3 2 2 3 2 2 2 2 2 2 3 3 3 3 6 13 18 13 9 13 15 17 18 18 18 18 73 100 88 100 88 100 100 100 91 67 65 57 61 56
26 13 6 5 4 3 3 3 3 3 3 4 3 2 2 3 3 3 3 6 15 18 16 12 14 16 18 19 18 19 18 86 100 86 100 84 99 100 100 99 80 50 62 72 84
32 19 8 6 5 5 4 3 3 3 3 4 3 3 2 2 3 4 8 12 18 23 16 13 13 15 18 18 18 20 19 82 100 100 96 100 98 100 100 96 80 71 53 63 94
35 28 10 7 5 6 4 4 4 4 4 4 4 3 3 3 4 4 4 8 14 14 12 10 9 14 16 18 18 21 20 60 100 99 87 82 87 91 73 76 94 92 65 52 58
43 34 16 10 10 10 6 4 4 4 4 4 5 5 4 4 4 5 5 6 6 9 12 12 12 17 18 18 19 18 20 18 100 91 66 80 82 99 79 85 81 81 76 60 55
45 42 32 16 17 15 9 6 5 5 5 4 4 6 6 5 5 6 7 7 10 13 14 15 15 16 18 19 19 20 20 19 43 100 93 96 78 100 79 66 74 75 80 80 64
33 40 45 28 16 21 19 9 7 5 5 5 4 6 8 7 6 8 10 12 15 14 14 16 18 16 18 19 20 21 20 20 20 99 100 74 64 100 93 69 57 66 67 76 85
32 40 45 48 21 18 28 13 8 7 5 5 5 5 7 10 8 9 12 13 14 14 17 17 19 18 18 20 20 22 21 21 20 41 92 71 62 100 92 81 80 78 58 51 50
42 37 47 58 27 22 21 23 7 7 6 6 6 6 6 8 11 10 13 16 16 17 18 16 21 22 20 20 19 22 22 22 23 21 21 91 100 100 100 97 93 80 75 73 52
40 36 43 57 52 23 18 25 12 9 6 6 7 6 7 7 11 12 11 13 16 18 21 25 25 22 25 23 25 26 24 24 26 26 22 18 62 100 100 86 84 82 75 68 56
39 45 47 49 65 25 15 24 17 9 8 6 6 7 7 7 10 12 13 13 13 16 18 22 27 37 47 46 42 40 31 27 28 31 28 24 20 30 100 100 100 85 76 79 84
39 42 43 42 58 57 20 17 20 12 9 8 6 6 7 8 9 15 16 15 14 14 14 16 17 21 30 34 36 40 41 36 28 26 29 28 28 22 21 79 100 100 100 84 77
37 41 44 46 55 62 38 21 25 16 9 8 6 6 7 8 9 11 16 18 17 17 17 15 14 14 16 15 17 22 23 22 24 23 24 26 26 26 24 22 19 22 28 56 82
38 43 43 44 60 48 54 26 20 18 10 8 8 6 6 7 8 11 16 21 23 21 20 19 19 17 16 15 16 16 16 16 17 17 19 20 24 25 24 22 20 18 17 16 15
40 42 48 38 48 58 67 46 25 26 10 8 8 6 6 7 7 9 12 21 27 30 27 24 25 24 24 20 20 20 20 20 18 15 15 15 18 20 22 23 22 20 19 18 17
37 44 44 39 39 45 61 38 27 21 9 8 8 7 6 8 8 8 11 15 22 33 42 41 32 29 28 26 24 26 20 19 19 19 18 20 16 17 17 19 20 20 21 20 20
Wind_Speed
88 91 84 80 78 71 60 56 53 52 51 54 56 54 59 60 61 63 66 75 83 94 102 104 101 103 101 104 107 107 115 109 102 103 98 93 90 85 80 77 72 69 68 68 64
90 90 85 80 77 69 62 59 55 52 51 52 57 56 56 61 63 61 72 78 82 90 96 103 102 104 104 102 113 114 111 110 106 104 102 97 94 88 83 79 77 73 72 70 68
93 91 88 82 76 69 62 61 60 55 49 46 52 55 52 56 64 70 76 80 85 88 92 100 101 101 105 103 109 108 105 108 113 111 108 100 96 91 86 83 81 77 75 73 71
96 93 91 87 75 69 64 61 60 55 48 39 40 49 47 46 60 73 77 79 83 87 90 96 97 95 102 100 105 116 110 112 117 115 108 103 97 92 88 87 83 77 72 74 73
96 95 92 92 80 68 61 62 60 57 49 39 33 38 43 43 54 65 72 76 83 85 84 89 92 93 100 101 104 107 111 112 113 115 112 108 102 96 89 89 86 83 80 77 73
98 98 96 93 84 70 63 65 63 59 50 39 30 30 35 36 42 58 66 71 79 85 85 85 90 93 100 103 103 107 112 112 112 116 114 110 103 100 94 90 89 86 83 83 80
101 102 96 95 87 71 66 69 65 61 49 38 30 25 27 31 44 54 65 69 76 85 84 83 90 91 96 101 102 108 114 114 115 117 114 113 108 99 98 94 93 91 91 86 81
102 101 100 99 93 76 70 72 70 65 51 41 34 22 17 25 42 53 65 67 76 82 83 85 89 91 95 99 102 108 113 116 115 116 116 113 107 103 104 99 97 93 92 90 84
105 104 102 102 95 84 76 74 71 66 54 46 36 21 10 20 36 49 61 68 75 81 85 86 89 90 92 96 99 104 110 115 116 115 115 112 107 108 107 106 102 97 92 90 86
108 105 106 103 97 92 82 77 75 68 57 48 38 22 9 12 26 42 56 64 74 82 92 89 85 85 86 89 86 94 101 115 117 115 114 113 109 109 110 111 107 101 94 87 85
109 112 106 105 99 95 89 79 75 70 61 50 41 24 12 6 25 38 47 57 70 80 81 77 73 74 81 83 88 96 101 121 119 118 115 113 115 110 114 116 111 102 95 89 84
111 110 109 105 102 97 91 82 77 70 64 53 41 27 17 5 12 31 42 53 66 74 76 74 69 73 80 83 86 94 98 116 120 120 117 117 116 115 118 117 114 106 97 93 87
108 108 110 108 104 99 90 85 79 73 67 54 42 32 21 14 6 19 32 49 62 69 70 69 69 72 78 81 83 91 95 115 119 118 120 118 117 121 120 118 115 109 100 94 91
108 108 108 109 106 99 92 85 79 74 67 56 46 34 21 19 10 19 35 49 58 64 68 71 72 73 77 79 81 87 94 112 121 121 119 120 117 121 122 120 117 110 103 101 94
103 105 106 107 103 99 93 85 79 72 66 58 49 39 28 18 12 10 22 43 53 60 64 66 68 68 72 74 77 85 93 109 119 122 121 119 120 119 123 121 115 110 107 104 101
97 100 103 106 105 102 95 83 78 73 64 57 50 40 32 23 14 9 5 17 33 43 45 49 53 61 66 70 74 80 85 96 118 118 116 118 118 118 119 116 116 114 110 107 104
89 99 101 103 106 104 95 86 79 68 63 57 48 42 34 25 17 13 6 4 19 32 36 40 46 55 61 66 70 76 83 96 106 119 117 119 117 116 118 115 115 114 114 111 107
84 92 97 98 101 104 100 88 79 70 62 53 49 39 33 28 17 12 5 4 19 17 22 30 46 52 56 60 65 74 78 86 95 117 119 117 111 116 119 116 113 113 112 112 109
81 88 97 93 98 101 99 92 80 69 58 52 43 40 30 25 17 8 1 6 10 9 14 15 24 43 54 56 58 61 72 80 88 102 115 112 111 117 117 117 115 114 112 111 112
80 85 92 95 92 96 98 95 82 69 59 50 43 36 32 22 16 7 5 10 13 12 13 10 17 22 31 42 49 55 61 69 78 87 97 113 114 117 120 119 118 115 112 111 109
77 83 90 94 95 94 96 96 87 72 59 47 40 34 28 23 16 10 1 10 15 16 18 22 19 21 20 30 42 49 52 59 68 75 86 97 107 119 119 117 115 115 110 108 105
75 82 86 91 95 88 90 92 89 74 61 51 36 32 28 21 16 10 5 2 13 21 24 23 24 26 32 36 39 43 47 52 56 65 75 86 96 104 124 122 116 113 110 109 110
74 81 83 88 91 90 86 88 83 81 65 55 41 29 25 24 15 10 6 4 6 13 19 25 28 32 35 38 37 42 50 54 58 63 63 71 83 92 105 114 122 123 121 116 114
75 77 86 85 88 89 86 84 84 83 69 55 44 31 23 19 19 13 10 5 5 9 13 17 23 27 30 34 34 36 37 45 51 58 63 64 72 78 87 96 98 107 111 110 115
73 77 82 84 87 85 87 84 84 79 72 54 46 33 24 17 16 15 11 10 7 8 11 15 18 22 26 28 32 35 35 37 42 52 52 62 65 71 78 83 86 88 95 100 100
72 75 83 85 84 84 88 84 82 75 66 54 46 37 27 21 16 14 14 11 10 10 12 15 17 21 24 24 27 29 34 37 42 43 46 52 58 66 71 74 76 79 81 83 86
72 77 83 83 82 85 85 80 82 76 64 54 42 34 29 22 20 15 16 15 13 12 12 13 15 18 23 23 25 28 30 34 36 38 40 43 51 55 61 66 71 72 74 76 77
Wind_Direction
350 353 352 349 344 337 330 324 316 307 297 288 279 269 258 252 243 235 226 224 218 218 217 221 218 217 217 215 218 219 217 214 214 219 220 217 218 218 219 222 223 224 224 226 228
351 354 354 351 346 339 333 327 321 314 303 290 280 270 257 248 243 232 225 222 220 218 217 219 219 216 217 213 216 217 217 213 215 219 220 219 217 218 217 220 222 223 224 225 227
353 355 356 351 350 344 338 333 327 320 311 293 280 272 261 245 240 229 222 220 219 217 214 217 219 215 214 214 215 217 218 215 215 217 218 219 219 217 218 219 222 222 224 224 227
353 357 356 354 353 349 344 337 331 326 321 305 279 268 262 249 231 231 224 219 218 216 213 215 217 215 214 215 214 215 214 215 215 217 219 218 218 217 218 219 220 223 224 226 227
353 356 357 355 353 349 350 343 339 336 332 317 290 268 259 244 230 228 224 218 217 216 213 214 215 214 212 213 214 213 214 215 216 216 218 218 218 216 218 219 220 221 224 224 225
354 356 358 357 353 351 355 351 346 346 337 325 303 278 259 244 230 224 223 217 213 213 212 212 212 214 211 211 212 211 214 214 216 217 217 219 218 217 216 219 219 220 222 226 225
353 357 359 357 357 356 360 357 352 352 343 336 322 295 267 232 217 214 218 215 209 212 210 210 212 212 212 210 211 209 213 215 215 216 216 219 218 218 217 218 220 219 222 225 226
352 356 359 360 359 0 3 2 356 356 351 349 339 315 272 230 215 205 210 211 206 209 210 208 211 210 212 209 210 210 210 213 216 217 215 218 219 218 218 218 221 221 223 223 226
351 355 359 2 1 2 6 6 360 359 359 359 347 333 285 221 211 204 206 205 202 206 210 209 209 210 211 210 209 210 210 214 216 217 216 215 218 222 221 218 220 222 223 225 224
350 354 358 1 2 5 5 9 3 2 5 6 358 355 336 214 204 203 205 202 200 204 210 209 207 209 210 211 210 210 211 213 215 217 219 215 218 222 224 220 221 221 222 225 227
348 352 356 359 4 4 4 7 5 3 9 11 5 10 21 190 194 200 201 199 199 207 213 211 207 209 211 211 209 210 208 209 214 217 219 217 217 221 224 225 221 221 222 224 225
347 351 354 358 2 4 4 5 8 6 12 15 12 19 36 38 206 203 199 195 198 204 211 211 205 206 210 211 208 210 209 211 214 217 218 219 218 219 225 226 225 221 221 225 227
345 350 353 355 1 4 3 4 6 7 15 14 16 20 51 63 128 196 198 194 195 203 209 210 206 205 210 211 209 210 209 209 213 218 220 221 220 221 224 227 228 223 220 223 227
347 349 350 353 357 4 2 4 6 5 14 13 17 23 40 67 108 172 183 188 195 201 208 209 206 205 209 212 210 210 210 210 213 218 220 223 222 225 226 227 229 229 224 223 225
349 352 351 353 356 4 4 6 5 8 9 12 19 28 35 54 89 154 194 196 199 207 212 212 207 206 209 212 213 212 211 210 214 218 221 223 225 227 229 229 229 231 230 227 226
353 354 352 352 354 360 3 4 6 3 3 13 16 25 32 43 67 78 141 212 218 216 220 220 207 209 211 213 214 214 214 212 214 221 223 224 226 229 232 233 232 232 233 231 230
357 357 357 353 353 356 3 1 3 4 5 4 16 19 29 33 54 65 79 195 221 220 219 211 207 209 212 215 217 218 216 215 215 219 223 225 228 228 234 234 236 235 234 234 234
353 357 360 355 352 353 359 3 1 3 1 4 6 17 24 32 36 58 62 239 226 218 228 224 216 212 213 216 217 218 219 218 217 219 224 228 231 229 234 236 237 238 237 237 236
353 354 359 1 352 352 353 1 360 1 360 358 3 6 20 28 37 51 326 272 264 264 255 242 222 221 218 220 220 222 224 223 221 222 225 230 232 231 235 239 239 240 241 240 239
349 353 359 2 354 350 351 357 359 359 360 353 354 2 2 23 36 41 195 229 249 252 256 245 235 222 222 223 223 225 225 226 227 225 226 229 232 233 234 238 240 242 244 245 245
347 352 356 359 355 348 347 351 357 354 358 355 347 351 354 2 20 41 183 216 218 231 239 241 241 238 225 226 225 225 225 224 226 228 227 227 230 233 236 239 241 243 244 247 249
347 349 353 357 357 349 345 348 351 357 353 353 349 340 343 348 356 7 22 248 217 219 221 230 241 237 247 241 233 232 231 229 225 225 225 226 230 233 233 238 242 245 247 246 249
345 349 354 359 355 357 348 346 352 353 352 350 345 338 335 332 337 342 338 298 248 228 222 222 221 223 224 227 225 228 228 228 225 225 223 223 227 230 232 235 238 243 249 251 252
343 351 351 355 356 357 351 347 347 349 351 344 341 334 325 324 322 318 317 296 268 246 244 239 232 231 229 225 226 230 231 228 229 228 225 225 225 230 233 235 238 242 244 247 251
343 349 352 353 359 356 355 345 344 347 348 342 337 330 318 307 309 301 295 290 275 256 244 242 242 242 242 238 234 233 233 234 233 232 231 229 229 230 232 234 236 239 242 245 248
343 348 350 353 358 357 356 348 346 347 350 343 336 328 315 297 294 290 275 268 264 252 242 243 247 252 248 248 244 240 237 235 236 234 235 234 234 233 234 236 238 239 242 244 247
342 345 348 351 356 357 353 350 341 342 347 340 330 320 315 295 286 279 273 262 252 247 243 236 240 243 248 251 250 247 244 239 238 237 235 234 237 238 236 237 239 240 241 244 245